Regional Weather Roundup
Issued by NWS Portland, ME

Home | Current Version | Previous Version | Text Only | Print | Product List | Glossary On
Versions: 1 2 3 4 5 6 7 8 9 10 11 12 13 14 15 16 17 18 19 20 21 22 23 24 25 26 27 28 29 30 31 32 33 34 35 36 37 38 39 40 41 42 43 44 45 46 47 48 49 50
495
ASUS41 KGYX 290010
RWRGYX
WEATHER ROUNDUP FOR MAINE AND NEW HAMPSHIRE
NATIONAL WEATHER SERVICE GRAY ME
800 PM EDT TUE MAR 28 2017

MEZ002-005-006-010-012-015-018-020-021-024-026-027-029-290100-
MAINE

CITY           SKY/WX    TMP DP  RH WIND       PRES   REMARKS
PORTLAND       LGT RAIN  36  34  92 E3        29.99F FOG
6HR MIN TEMP:  35; 6HR MAX TEMP:  36; 6HR PCP:  0.02;

SANFORD        LGT RAIN  35  34  96 NE3       29.98F FOG
BAR HARBOR     CLOUDY    34  33  96 CALM      30.03R
WISCASSET      CLOUDY    36  35  96 CALM      30.01F
6HR MIN TEMP:  36; 6HR MAX TEMP:  39; 6HR PCP: TRACE;

ROCKLAND       CLOUDY    35  33  92 NE3       30.01S
FRYEBURG       CLOUDY    34  34 100 CALM      29.98R FOG
6HR MIN TEMP:  35; 6HR MAX TEMP:  38; 6HR PCP: TRACE;

LEWISTONAUBURN FOG       35  33  92 S3        29.99S VSB 1
AUGUSTA        CLOUDY    35  33  92 VRB3      30.00R
6HR MIN TEMP:  34; 6HR MAX TEMP:  36;

WATERVILLE     FOG       34  33  96 CALM      29.97R VSB 1/2
BANGOR         LGT RAIN  34  33  96 S3        30.01R
6HR MIN TEMP:  33; 6HR MAX TEMP:  35; 6HR PCP: TRACE;

GREENVILLE       N/A     30  30 100 CALM      29.92R
6HR MIN TEMP:  29; 6HR MAX TEMP:  30; 6HR PCP:  0.10;

MILLINOCKET    MIX PCPN  32  32 100 CALM      30.00R FOG
6HR MIN TEMP:  32; 6HR MAX TEMP:  33; 6HR PCP:  0.05;

HOULTON        FRZ RAIN  32  31  96 CALM      29.99R
6HR MIN TEMP:  30; 6HR MAX TEMP:  32; 6HR PCP:  0.04;

PRESQUE ISLE   LGT SNOW  31  30  96 CALM      30.02S FOG
6HR MIN TEMP:  31; 6HR MAX TEMP:  32; 6HR PCP:  0.15;

FRENCHVILLE    LGT SNOW  29  27  92 E3        29.99S FOG
6HR MIN TEMP:  28; 6HR MAX TEMP:  30; 6HR PCP:  0.14;

CARIBOU        LGT SNOW  31  30  96 CALM      30.00S VSB 3/4
6HR MIN TEMP:  31; 6HR MAX TEMP:  32; 6HR PCP:  0.22;

$$

NHZ002-005-008-009-011-012-014-290100-
NEW HAMPSHIRE

CITY           SKY/WX    TMP DP  RH WIND       PRES   REMARKS
PORTSMOUTH     LGT RAIN  37  36  96 NE5       29.96F FOG
ROCHESTER      LGT RAIN  36  34  92 CALM      29.96S
6HR MIN TEMP:  36; 6HR MAX TEMP:  39; 6HR PCP:  0.07;

NASHUA         LGT RAIN  38  37  97 CALM      29.97S FOG
MANCHESTER     LGT RAIN  38  35  89 NE3       29.95S FOG
6HR MIN TEMP:  38; 6HR MAX TEMP:  40; 6HR PCP:  0.12;

CONCORD        LGT RAIN  37  35  92 CALM      29.96F FOG
6HR MIN TEMP:  37; 6HR MAX TEMP:  41; 6HR PCP:  0.16;

LACONIA        LGT RAIN  35  33  92 CALM      29.96S FOG
PLYMOUTH       CLOUDY    36  35  98 CALM      29.96S FOG
BERLIN         CLOUDY    37  35  92 S3        29.93S FOG
6HR MIN TEMP:  36; 6HR MAX TEMP:  46; 6HR PCP:  0.04;

WHITEFIELD     LGT RAIN  39  36  89 CALM      29.94R FOG
6HR MIN TEMP:  38; 6HR MAX TEMP:  47; 6HR PCP:  0.05;

JAFFREY        RAIN      37  36  96 CALM      29.92S FOG
6HR MIN TEMP:  36; 6HR MAX TEMP:  40; 6HR PCP:  0.24;

KEENE          LGT RAIN  39  37  92 NE5       29.94R
LEBANON        CLOUDY    38  36  92 NE10      29.94R
6HR MIN TEMP:  38; 6HR MAX TEMP:  43; 6HR PCP: TRACE;

MT WASHINGTON  LGT RAIN  34  34 100 W26         N/A  VSB 0
6HR MIN TEMP:  33; 6HR MAX TEMP:  35; 6HR PCP:  0.04;

$$

VTZ005-007-008-290100-
VERMONT

CITY           SKY/WX    TMP DP  RH WIND       PRES   REMARKS
ST JOHNSBURY     N/A     39  38  96 MISG      29.93R
MONTPELIER     CLOUDY    39  39 100 NW5       29.97R FOG
BURLINGTON     LGT RAIN  37  35  92 NW10      30.01R FOG
$$

MAZ007-012-024-CTZ003-RIZ002-NYZ038-NYZ072-290100-
SOUTHERN NEW ENGLAND AND NY

CITY           SKY/WX    TMP DP  RH WIND       PRES   REMARKS
BOSTON         RAIN      38  38 100 NE7       29.97R FOG
WORCESTER      HVY RAIN  36  35  96 NE6       29.92S VSB 1/2
NANTUCKET      CLOUDY    41  39  93 E10       29.92S
PROVIDENCE     LGT RAIN  41  38  89 NE9       29.94R
HARTFORD       LGT RAIN  42  41  96 N5        29.93S FOG
ALBANY         LGT RAIN  45  43  93 CALM      29.93R FOG
NEW YORK CITY  LGT RAIN  42  38  85 NE15      29.91S FOG
$$

ANZ081-ANZ082-ANZ150-NHZ014-MEZ023>029-290100-
COASTAL MARINE OBSERVATIONS

STATION/POSITION TIME  TEMP    WIND        PRES    WAVE
                       AIR SEA DIR/SP/G            HT/PER
                 (UTC) (F)     (DEG/KT/KT) (MB)    (FT/S)
MOUNT DESERT ROC 0000   36                 1016.3R
MATINICUS ROCK   2300   36     100/  8/  9 1015.5R
ISLE OF SHOALS   2300   37      30/  8/  8 1014.9F
JEFFREYS LEDGE   2306      41                N/A     3/ 7
CASHES LEDGE BUO 2350   37 40              1015.6F   4/ 7
GEORGES BANK BUO 2350   38 40              1014.4R   4/ 7
$$

.............KEY..............
   WCI - WIND CHILL
   TC  - TEMPERATURE IN CELSIUS
   VSB - VISIBILITY IN MILES
   HX  - HEAT INDEX
   FAIR- INDICATES FEW OR NO CLOUDS BELOW 12,000 FT, WITH NO
         SIGNIFICANT WEATHER AND/OR OBSTRUCTIONS TO VISIBILITY.






USA.gov is the U.S. government's official web portal to all federal, state and local government web resources and services.